Powrót do katalogu

STARLINK-32455

AktywnyŁącznośćVLEO
NORAD 61632·PAYLOAD·🇺🇸 United States

Wystrzelony Oct 23, 2024 z Cape Canaveral Space Force Station

Loading…

Następne Przeloty (najbliższe 24 godziny)

TLE

ŚwieżeSource: CelesTrak SupGP

Epoka: Sep 14, 2026, 20:43 UTC

1 61632C 24191M   26257.86368056 -.00023609  00000+0 -85497-3 0  2573
2 61632  43.0000 169.9077 0001328 264.8762 133.2328 15.27596303    19

Śledź STARLINK-32455 w czasie rzeczywistym z AllMySat

Download on the App Store